Regional Weather Roundup
Issued by NWS Charleston, SC

Home | Current Version | Previous Version | Text Only | Print | Product List | Glossary On
Versions: 1 2 3 4 5 6 7 8 9 10 11 12 13 14 15 16 17 18 19 20 21 22 23 24 25 26 27 28 29 30 31 32 33 34 35 36 37 38 39 40 41 42 43 44 45 46 47 48 49 50
000
ASUS42 KCHS 240427
RWRCHS

REGIONAL WEATHER ROUNDUP
NATIONAL WEATHER SERVICE CHARLESTON SC
1100 PM EST THU FEB 23 2017

NOTE: "FAIR" INDICATES FEW OR NO CLOUDS BELOW 12,000 FEET WITH NO
SIGNIFICANT WEATHER AND/OR OBSTRUCTIONS TO VISIBILITY.

NOT ALL STATIONS ARE QUALITY CONTROLLED. USE DATA WITH CAUTION...
ESPECIALLY DEWPOINT OBSERVATIONS.

SCZ027-030-031-034>040-042>050-240500-
...SOUTHEAST SOUTH CAROLINA...

CITY           SKY/WX    TMP DP  RH WIND       PRES   REMARKS
N CHARLESTON   CLEAR     61  57  87 NE6       29.87F
WATERFRONT PRK   N/A     63  61  93 N6        29.87R
MOUNT PLEASANT FAIR      61  57  88 CALM      29.88S FOG
JOHNS ISLAND   FAIR      63  61  94 MISG      29.87F
PINOPOLIS        N/A     61  59  94 VRB3      29.80R
MONCKS CORNER  FAIR      59  57  94 CALM      29.89S
SUMMERVILLE    FAIR      57  55  94 CALM      29.90S
BEAUFORT MCAS  CLEAR     59  59 100 N6        29.87S
BEAUFORT ARPT  FAIR      61  59  94 NE6       29.87S
HILTON HEAD IS CLEAR     64  63  94 NE7       29.87S
WALTERBORO     CLEAR     57  55  94 CALM      29.89F
ALLENDALE      FAIR      61  57  88 CALM      29.88S

...SOUTHERN MIDLANDS AND PEE DEE...

CITY           SKY/WX    TMP DP  RH WIND       PRES   REMARKS
GEORGETOWN     FAIR      55  54  94 CALM      29.90S
KINGSTREE      FAIR      54  52  94 CALM      29.90S
ORANGEBURG     CLEAR     59  56  89 E3        29.90R
BARNWELL       FAIR      63  59  88 CALM      29.90R
AIKEN          FAIR      54  52  94 CALM      29.94R
MANNING        FAIR      54  50  87 MISG      29.90S
COLUMBIA       CLEAR     59  53  80 CALM      29.90R
SUMTER         CLEAR     58  53  83 CALM      29.89R
FLORENCE       CLEAR     58  56  93 CALM      29.91S
MYRTLE BEACH   NOT AVBL
N MYRTLE BEACH CLEAR     59  58  96 NE3       29.89F

$$

GAZ063-065-086>088-099>101-113>116-118-119-134>141-150-240500-
...SOUTHEAST GEORGIA...

CITY           SKY/WX    TMP DP  RH WIND       PRES   REMARKS
SAVANNAH ARPT  CLEAR     62  59  90 NE7       29.86S
HUNTER AAF     CLEAR     63  63 100 NE3       29.83S
FORT STEWART   CLEAR     62  59  91 N3        29.84R
STATESBORO     CLEAR     58  32  37 CALM      29.88S HAZE
SYLVANIA       CLEAR    N/A N/A N/A E3        29.89S
CLAXTON        FAIR     N/A N/A N/A CALM      29.88R HAZE

...CSRA...CENTRAL AND FAR SOUTHEAST GEORGIA...

CITY           SKY/WX    TMP DP  RH WIND       PRES   REMARKS
THOMSON        CLEAR     56  55  97 CALM      29.94S
AUGUSTA-BUSH   CLEAR     60  54  80 CALM      29.89R
AUGUSTA-DANIEL CLEAR     66  52  60 E3        29.90R
SWAINSBORO     FAIR      57  57 100 CALM      29.90R
VIDALIA        CLEAR     63  61  94 NE3       29.88S
EASTMAN        FAIR      58  58 100 CALM      29.90F
HAZLEHURST     FAIR      62  62 100 CALM      29.87R
ALMA           CLEAR     57  57 100 CALM      29.86R
WAYCROSS       CLEAR     62  62 100 CALM      29.85S
JESUP          FAIR      63  59  88 NE3       29.86S
BAXLEY         FAIR      59  59 100 CALM      29.86S
BRUNSWICK      CLEAR     64  63  94 NE6       29.84S
SAINT SIMONS   CLEAR     65  61  87 N10       29.82F

$$

SCZ027-028-034-036>038-045-046-048>050-GAZ119-141-240500-
...LAKE AND SUPPLEMENTAL COASTAL OBSERVATIONS...

STATION/POSITION TIME  TEMP    WIND        PRES    WAVE   SWELL
                       AIR SEA DIR/SP/G            HT/PER HT/PER/DIR
                 (UTC) (F)     (DEG/KT/KT) (MB)    (FT/S) (FT/S/D)
WINYAH BAY       0330   62      40/  7     1012.0S
LAKE MURRAY      0330   62        CALM     1012.2S
ACE BASIN NERRS  0345   62        CALM     1011.0S
FORT PULASKI     0400   66 62   50/  8/ 11 1011.2
SAPELO ISLAND    0400   65      30/  8     1010.0

$$

ANZ835-935-AMZ111-154-330-350-352-354-370-450-454-472-240500-
...C-MAN AND BUOY OBSERVATIONS...

STATION/POSITION TIME  TEMP    WIND        PRES    WAVE   SWELL
                       AIR SEA DIR/SP/G            HT/PER HT/PER/DIR
                 (UTC) (F)     (DEG/KT/KT) (MB)    (FT/S) (FT/S/D)
BUOY 41004       0350   70 70   50/ 14/ 16 1010.5R   9/10   8/130/10
BUOY 41008       0350   64 62   30/ 14/ 16 1009.6R   6/10   5/110/10
FOLLY BEACH CMAN 0400   63      30/  7/  8 1011.9F
CAPERS NEARSHORE 0408   62 60   40/ 12/ 14 1011.4F
FRIPP NEARSHORE  0408   63 61   50/ 12/ 14 1010.8S


STATION/POSITION TIME  TEMP    WIND        PRES    WAVE   SWELL
                       AIR SEA DIR/SP/G            HT/PER HT/PER/DIR
                 (UTC) (F)     (DEG/KT/KT) (MB)    (FT/S) (FT/S/D)
5E ST. MARYS GA  0400      63                N/A     7/11   3/120/11
FRYING PAN BUOY  0410   71 71  100/ 14/ 17 1011.9
BUOY 41025       0350   71 74  140/ 16/ 19 1013.8R   5/ 7   3/ 60/10
CAPE LOOKOUT NC  0400   66     130/ 11/ 11 1013.0S
BUOY 41002       0350   68 69  100/ 25/ 31 1009.5F  11/10   8/120/10
BUOY 41010       NOT AVBL
ST AUGUSTINE FL  0400   67 67   10/ 15/ 17 1009.0R


$$




USA.gov is the U.S. government's official web portal to all federal, state and local government web resources and services.